| State | Missouri | Latest | Unknown (1110 cfs) | |
| River | Big River | Rating | Observed | Estimated |
| Updated | 2026-05-10 6:00 (36 minutes ago) | Flood - The river is flooding. Obstacles can be treacherous or deadly. The river should be avoided at this stage for casual trips and definitely for the inexperienced. Trips should be attempted only with protective gear and equipment.Flood | (none) | (none) |
| Discharge | 1110 cfs (median: 575 cfs) | High - The river is high and potentially dangerous, especially for the young and / or inexperienced. Normal stream obstacles are sometimes difficult to navigate. Extended distances can be attempted, but canoe travel may not be advisable.High | (none) | (none) |
| Height | 4.95 feet | Good - Conditions are ideal for a canoe or kayak. Boats typically will drag on fewer than one-quarter of riffles, if at all, and portages are unnecessary or rare. Normal float lengths can be attempted without a problem.Good | (none) | (none) |
| Trend | Steady (rising over 24 hours) | Low - River is low but can still be floated. Some riffles are okay but most come with significant dragging and might need a portage. Float lengths should be reduced to accommodate low flow, dragging, and portages.Low | (none) | (none) |
| USGS | USGS Site ( Duck Duck Go Maps) | Poor - River is too low to float comfortably. Most or all riffles will drag or must be portaged and some obstacles (such as slick shelf rock) cause undue problems. Avoid the river at this stage for casual paddling trips.Poor | (none) | (none) |
A total of 1 rows are displayed.
| Miles | 5.5 |
| Trips | 1 |
| People | 2 |
| Dates | 1 |
| Years | 1 |
| Months | 1 |
| Rows | 1 |
| Sources | 1 |
BLG - Bluegill
CCF - Channel Catfish
CP - Chain Pickerel
FWD - Freshwater Drum
GSF - Green Sunfish
KSB - Kentucky Spotted Bass
LMB - Largemouth Bass
LSF - Longear Sunfish
RB - Rock Bass / Goggle Eye
RSF - Redear Sunfish
RT - Rainbow Trout
SMB - Smallmouth Bass
WB - White Bass
WF - Whitefish
WL - WalleyeThe classic River Trips application is still available for use. It is updated with the new system using a data retrofit. It is no longer maintained. The original River Trips application is no longer updated (as of 1 Dec 2016) but can be checked for errors or for the condition of the data before it was converted to the new system.
| Observation | Height | Discharge | Maximum Discharge | Minimum Discharge | Mean Discharge | P05 | P10 | P20 | P25 | P50 (Median) | P75 | P80 | P90 | P95 |
|---|---|---|---|---|---|---|---|---|---|---|---|---|---|---|
| 2026-05-10 06:00 | 4.95 | 1110 | 10700 (2002) | 137 (2000) | 1170 | 176 | 197 | 330 | 355 | 575 | 1130 | 1300 | 1960 | 6490 |
| 2026-05-10 05:30 | 4.96 | 1110 | 10700 (2002) | 137 (2000) | 1170 | 176 | 197 | 330 | 355 | 575 | 1130 | 1300 | 1960 | 6490 |
| 2026-05-10 05:00 | 5.00 | 1130 | 10700 (2002) | 137 (2000) | 1170 | 176 | 197 | 330 | 355 | 575 | 1130 | 1300 | 1960 | 6490 |
| 2026-05-10 04:30 | 5.02 | 1140 | 10700 (2002) | 137 (2000) | 1170 | 176 | 197 | 330 | 355 | 575 | 1130 | 1300 | 1960 | 6490 |
| 2026-05-10 04:00 | 5.05 | 1150 | 10700 (2002) | 137 (2000) | 1170 | 176 | 197 | 330 | 355 | 575 | 1130 | 1300 | 1960 | 6490 |
| 2026-05-10 03:30 | 5.02 | 1140 | 10700 (2002) | 137 (2000) | 1170 | 176 | 197 | 330 | 355 | 575 | 1130 | 1300 | 1960 | 6490 |
| 2026-05-10 03:00 | 5.05 | 1150 | 10700 (2002) | 137 (2000) | 1170 | 176 | 197 | 330 | 355 | 575 | 1130 | 1300 | 1960 | 6490 |
| 2026-05-10 02:30 | 5.11 | 1180 | 10700 (2002) | 137 (2000) | 1170 | 176 | 197 | 330 | 355 | 575 | 1130 | 1300 | 1960 | 6490 |
| 2026-05-10 02:00 | 5.09 | 1170 | 10700 (2002) | 137 (2000) | 1170 | 176 | 197 | 330 | 355 | 575 | 1130 | 1300 | 1960 | 6490 |
| 2026-05-10 01:30 | 5.15 | 1200 | 10700 (2002) | 137 (2000) | 1170 | 176 | 197 | 330 | 355 | 575 | 1130 | 1300 | 1960 | 6490 |
| 2026-05-10 01:00 | 5.15 | 1200 | 10700 (2002) | 137 (2000) | 1170 | 176 | 197 | 330 | 355 | 575 | 1130 | 1300 | 1960 | 6490 |
| 2026-05-10 00:30 | 5.17 | 1210 | 10700 (2002) | 137 (2000) | 1170 | 176 | 197 | 330 | 355 | 575 | 1130 | 1300 | 1960 | 6490 |
| 2026-05-10 00:00 | 5.15 | 1200 | 10700 (2002) | 137 (2000) | 1170 | 176 | 197 | 330 | 355 | 575 | 1130 | 1300 | 1960 | 6490 |
| 2026-05-09 23:30 | 5.22 | 1230 | 10700 (2002) | 137 (2000) | 1170 | 176 | 197 | 330 | 355 | 575 | 1130 | 1300 | 1960 | 6490 |
| 2026-05-09 23:00 | 5.22 | 1230 | 10700 (2002) | 137 (2000) | 1170 | 176 | 197 | 330 | 355 | 575 | 1130 | 1300 | 1960 | 6490 |
| 2026-05-09 22:30 | 5.21 | 1220 | 24500 (2009) | 125 (1981) | 1810 | 181 | 212 | 314 | 355 | 564 | 1060 | 1500 | 2990 | 14100 |
| 2026-05-09 22:00 | 5.24 | 1240 | 24500 (2009) | 125 (1981) | 1810 | 181 | 212 | 314 | 355 | 564 | 1060 | 1500 | 2990 | 14100 |
| 2026-05-09 21:30 | 5.26 | 1250 | 24500 (2009) | 125 (1981) | 1810 | 181 | 212 | 314 | 355 | 564 | 1060 | 1500 | 2990 | 14100 |
| 2026-05-09 21:00 | 5.26 | 1250 | 24500 (2009) | 125 (1981) | 1810 | 181 | 212 | 314 | 355 | 564 | 1060 | 1500 | 2990 | 14100 |
| 2026-05-09 20:30 | 5.28 | 1260 | 24500 (2009) | 125 (1981) | 1810 | 181 | 212 | 314 | 355 | 564 | 1060 | 1500 | 2990 | 14100 |
| 2026-05-09 20:00 | 5.31 | 1270 | 24500 (2009) | 125 (1981) | 1810 | 181 | 212 | 314 | 355 | 564 | 1060 | 1500 | 2990 | 14100 |
| 2026-05-09 19:30 | 5.34 | 1280 | 24500 (2009) | 125 (1981) | 1810 | 181 | 212 | 314 | 355 | 564 | 1060 | 1500 | 2990 | 14100 |
| 2026-05-09 19:00 | 5.39 | 1310 | 24500 (2009) | 125 (1981) | 1810 | 181 | 212 | 314 | 355 | 564 | 1060 | 1500 | 2990 | 14100 |
| 2026-05-09 18:30 | 5.38 | 1300 | 24500 (2009) | 125 (1981) | 1810 | 181 | 212 | 314 | 355 | 564 | 1060 | 1500 | 2990 | 14100 |
| 2026-05-09 18:00 | 5.42 | 1320 | 24500 (2009) | 125 (1981) | 1810 | 181 | 212 | 314 | 355 | 564 | 1060 | 1500 | 2990 | 14100 |
| 2026-05-09 17:30 | 5.45 | 1340 | 24500 (2009) | 125 (1981) | 1810 | 181 | 212 | 314 | 355 | 564 | 1060 | 1500 | 2990 | 14100 |
| 2026-05-09 17:00 | 5.48 | 1350 | 24500 (2009) | 125 (1981) | 1810 | 181 | 212 | 314 | 355 | 564 | 1060 | 1500 | 2990 | 14100 |
| 2026-05-09 16:30 | 5.47 | 1350 | 24500 (2009) | 125 (1981) | 1810 | 181 | 212 | 314 | 355 | 564 | 1060 | 1500 | 2990 | 14100 |
| 2026-05-09 16:00 | 5.54 | 1380 | 24500 (2009) | 125 (1981) | 1810 | 181 | 212 | 314 | 355 | 564 | 1060 | 1500 | 2990 | 14100 |
| 2026-05-09 15:30 | 5.54 | 1380 | 24500 (2009) | 125 (1981) | 1810 | 181 | 212 | 314 | 355 | 564 | 1060 | 1500 | 2990 | 14100 |
| 2026-05-09 15:00 | 5.49 | 1360 | 24500 (2009) | 125 (1981) | 1810 | 181 | 212 | 314 | 355 | 564 | 1060 | 1500 | 2990 | 14100 |
| 2026-05-09 14:30 | 5.48 | 1350 | 24500 (2009) | 125 (1981) | 1810 | 181 | 212 | 314 | 355 | 564 | 1060 | 1500 | 2990 | 14100 |
| 2026-05-09 14:00 | 5.39 | 1310 | 24500 (2009) | 125 (1981) | 1810 | 181 | 212 | 314 | 355 | 564 | 1060 | 1500 | 2990 | 14100 |
| 2026-05-09 13:30 | 5.30 | 1270 | 24500 (2009) | 125 (1981) | 1810 | 181 | 212 | 314 | 355 | 564 | 1060 | 1500 | 2990 | 14100 |
| 2026-05-09 13:00 | 5.24 | 1240 | 24500 (2009) | 125 (1981) | 1810 | 181 | 212 | 314 | 355 | 564 | 1060 | 1500 | 2990 | 14100 |
| 2026-05-09 12:30 | 5.13 | 1190 | 24500 (2009) | 125 (1981) | 1810 | 181 | 212 | 314 | 355 | 564 | 1060 | 1500 | 2990 | 14100 |
| 2026-05-09 12:00 | 5.02 | 1140 | 24500 (2009) | 125 (1981) | 1810 | 181 | 212 | 314 | 355 | 564 | 1060 | 1500 | 2990 | 14100 |
| 2026-05-09 11:30 | 4.94 | 1100 | 24500 (2009) | 125 (1981) | 1810 | 181 | 212 | 314 | 355 | 564 | 1060 | 1500 | 2990 | 14100 |
| 2026-05-09 11:00 | 4.92 | 1090 | 24500 (2009) | 125 (1981) | 1810 | 181 | 212 | 314 | 355 | 564 | 1060 | 1500 | 2990 | 14100 |
| 2026-05-09 10:30 | 4.90 | 1080 | 24500 (2009) | 125 (1981) | 1810 | 181 | 212 | 314 | 355 | 564 | 1060 | 1500 | 2990 | 14100 |
| 2026-05-09 10:00 | 4.83 | 1050 | 24500 (2009) | 125 (1981) | 1810 | 181 | 212 | 314 | 355 | 564 | 1060 | 1500 | 2990 | 14100 |
| 2026-05-09 09:30 | 4.79 | 1040 | 24500 (2009) | 125 (1981) | 1810 | 181 | 212 | 314 | 355 | 564 | 1060 | 1500 | 2990 | 14100 |
| 2026-05-09 09:00 | 4.78 | 1030 | 24500 (2009) | 125 (1981) | 1810 | 181 | 212 | 314 | 355 | 564 | 1060 | 1500 | 2990 | 14100 |
| 2026-05-09 08:30 | 4.72 | 1010 | 24500 (2009) | 125 (1981) | 1810 | 181 | 212 | 314 | 355 | 564 | 1060 | 1500 | 2990 | 14100 |
| 2026-05-09 08:00 | 4.66 | 979 | 24500 (2009) | 125 (1981) | 1810 | 181 | 212 | 314 | 355 | 564 | 1060 | 1500 | 2990 | 14100 |
| 2026-05-09 07:30 | 4.60 | 954 | 24500 (2009) | 125 (1981) | 1810 | 181 | 212 | 314 | 355 | 564 | 1060 | 1500 | 2990 | 14100 |
| 2026-05-09 07:00 | 4.56 | 937 | 24500 (2009) | 125 (1981) | 1810 | 181 | 212 | 314 | 355 | 564 | 1060 | 1500 | 2990 | 14100 |
| 2026-05-09 06:30 | 4.50 | 911 | 24500 (2009) | 125 (1981) | 1810 | 181 | 212 | 314 | 355 | 564 | 1060 | 1500 | 2990 | 14100 |
| 2026-05-09 06:00 | 4.46 | 895 | 24500 (2009) | 125 (1981) | 1810 | 181 | 212 | 314 | 355 | 564 | 1060 | 1500 | 2990 | 14100 |
| 2026-05-09 05:30 | 4.38 | 862 | 24500 (2009) | 125 (1981) | 1810 | 181 | 212 | 314 | 355 | 564 | 1060 | 1500 | 2990 | 14100 |
| 2026-05-09 05:00 | 4.30 | 829 | 24500 (2009) | 125 (1981) | 1810 | 181 | 212 | 314 | 355 | 564 | 1060 | 1500 | 2990 | 14100 |
| 2026-05-09 04:30 | 4.22 | 797 | 24500 (2009) | 125 (1981) | 1810 | 181 | 212 | 314 | 355 | 564 | 1060 | 1500 | 2990 | 14100 |
| 2026-05-09 04:00 | 4.16 | 773 | 24500 (2009) | 125 (1981) | 1810 | 181 | 212 | 314 | 355 | 564 | 1060 | 1500 | 2990 | 14100 |
| 2026-05-09 03:30 | 4.11 | 753 | 24500 (2009) | 125 (1981) | 1810 | 181 | 212 | 314 | 355 | 564 | 1060 | 1500 | 2990 | 14100 |
| 2026-05-09 03:00 | 4.06 | 733 | 24500 (2009) | 125 (1981) | 1810 | 181 | 212 | 314 | 355 | 564 | 1060 | 1500 | 2990 | 14100 |
| 2026-05-09 02:30 | 4.03 | 722 | 24500 (2009) | 125 (1981) | 1810 | 181 | 212 | 314 | 355 | 564 | 1060 | 1500 | 2990 | 14100 |
| 2026-05-09 02:00 | 3.99 | 706 | 24500 (2009) | 125 (1981) | 1810 | 181 | 212 | 314 | 355 | 564 | 1060 | 1500 | 2990 | 14100 |
| 2026-05-09 01:30 | 3.99 | 706 | 24500 (2009) | 125 (1981) | 1810 | 181 | 212 | 314 | 355 | 564 | 1060 | 1500 | 2990 | 14100 |
| 2026-05-09 01:00 | 3.95 | 691 | 24500 (2009) | 125 (1981) | 1810 | 181 | 212 | 314 | 355 | 564 | 1060 | 1500 | 2990 | 14100 |
| 2026-05-09 00:30 | 3.94 | 687 | 24500 (2009) | 125 (1981) | 1810 | 181 | 212 | 314 | 355 | 564 | 1060 | 1500 | 2990 | 14100 |
| 2026-05-09 00:00 | 3.91 | 675 | 24500 (2009) | 125 (1981) | 1810 | 181 | 212 | 314 | 355 | 564 | 1060 | 1500 | 2990 | 14100 |
| 2026-05-08 23:30 | 3.90 | 672 | 24500 (2009) | 125 (1981) | 1810 | 181 | 212 | 314 | 355 | 564 | 1060 | 1500 | 2990 | 14100 |
| 2026-05-08 23:00 | 3.87 | 660 | 24500 (2009) | 125 (1981) | 1810 | 181 | 212 | 314 | 355 | 564 | 1060 | 1500 | 2990 | 14100 |
| 2026-05-08 22:30 | 3.87 | 660 | 15100 (1961) | 127 (1981) | 1440 | 201 | 226 | 314 | 330 | 638 | 1350 | 1630 | 4570 | 6210 |
| 2026-05-08 22:00 | 3.84 | 649 | 15100 (1961) | 127 (1981) | 1440 | 201 | 226 | 314 | 330 | 638 | 1350 | 1630 | 4570 | 6210 |
| 2026-05-08 21:30 | 3.84 | 649 | 15100 (1961) | 127 (1981) | 1440 | 201 | 226 | 314 | 330 | 638 | 1350 | 1630 | 4570 | 6210 |
| 2026-05-08 21:00 | 3.84 | 649 | 15100 (1961) | 127 (1981) | 1440 | 201 | 226 | 314 | 330 | 638 | 1350 | 1630 | 4570 | 6210 |
| 2026-05-08 20:30 | 3.85 | 653 | 15100 (1961) | 127 (1981) | 1440 | 201 | 226 | 314 | 330 | 638 | 1350 | 1630 | 4570 | 6210 |
| 2026-05-08 20:00 | 3.87 | 660 | 15100 (1961) | 127 (1981) | 1440 | 201 | 226 | 314 | 330 | 638 | 1350 | 1630 | 4570 | 6210 |
| 2026-05-08 19:30 | 3.86 | 656 | 15100 (1961) | 127 (1981) | 1440 | 201 | 226 | 314 | 330 | 638 | 1350 | 1630 | 4570 | 6210 |
| 2026-05-08 19:00 | 3.86 | 656 | 15100 (1961) | 127 (1981) | 1440 | 201 | 226 | 314 | 330 | 638 | 1350 | 1630 | 4570 | 6210 |
| 2026-05-08 18:30 | 3.88 | 664 | 15100 (1961) | 127 (1981) | 1440 | 201 | 226 | 314 | 330 | 638 | 1350 | 1630 | 4570 | 6210 |
| 2026-05-08 18:00 | 3.88 | 664 | 15100 (1961) | 127 (1981) | 1440 | 201 | 226 | 314 | 330 | 638 | 1350 | 1630 | 4570 | 6210 |
| 2026-05-08 17:30 | 3.89 | 668 | 15100 (1961) | 127 (1981) | 1440 | 201 | 226 | 314 | 330 | 638 | 1350 | 1630 | 4570 | 6210 |
| 2026-05-08 17:00 | 3.87 | 660 | 15100 (1961) | 127 (1981) | 1440 | 201 | 226 | 314 | 330 | 638 | 1350 | 1630 | 4570 | 6210 |
| 2026-05-08 16:30 | 3.89 | 668 | 15100 (1961) | 127 (1981) | 1440 | 201 | 226 | 314 | 330 | 638 | 1350 | 1630 | 4570 | 6210 |
| 2026-05-08 16:00 | 3.90 | 672 | 15100 (1961) | 127 (1981) | 1440 | 201 | 226 | 314 | 330 | 638 | 1350 | 1630 | 4570 | 6210 |
| 2026-05-08 15:30 | 3.92 | 679 | 15100 (1961) | 127 (1981) | 1440 | 201 | 226 | 314 | 330 | 638 | 1350 | 1630 | 4570 | 6210 |
| 2026-05-08 15:00 | 3.91 | 675 | 15100 (1961) | 127 (1981) | 1440 | 201 | 226 | 314 | 330 | 638 | 1350 | 1630 | 4570 | 6210 |
| 2026-05-08 14:30 | 3.92 | 679 | 15100 (1961) | 127 (1981) | 1440 | 201 | 226 | 314 | 330 | 638 | 1350 | 1630 | 4570 | 6210 |
| 2026-05-08 14:00 | 3.93 | 683 | 15100 (1961) | 127 (1981) | 1440 | 201 | 226 | 314 | 330 | 638 | 1350 | 1630 | 4570 | 6210 |
| 2026-05-08 13:30 | 3.93 | 683 | 15100 (1961) | 127 (1981) | 1440 | 201 | 226 | 314 | 330 | 638 | 1350 | 1630 | 4570 | 6210 |
| 2026-05-08 13:00 | 3.94 | 687 | 15100 (1961) | 127 (1981) | 1440 | 201 | 226 | 314 | 330 | 638 | 1350 | 1630 | 4570 | 6210 |
| 2026-05-08 12:30 | 3.93 | 683 | 15100 (1961) | 127 (1981) | 1440 | 201 | 226 | 314 | 330 | 638 | 1350 | 1630 | 4570 | 6210 |
| 2026-05-08 12:00 | 3.95 | 691 | 15100 (1961) | 127 (1981) | 1440 | 201 | 226 | 314 | 330 | 638 | 1350 | 1630 | 4570 | 6210 |
| 2026-05-08 11:30 | 3.95 | 691 | 15100 (1961) | 127 (1981) | 1440 | 201 | 226 | 314 | 330 | 638 | 1350 | 1630 | 4570 | 6210 |
| 2026-05-08 11:00 | 3.97 | 698 | 15100 (1961) | 127 (1981) | 1440 | 201 | 226 | 314 | 330 | 638 | 1350 | 1630 | 4570 | 6210 |
| 2026-05-08 10:30 | 3.96 | 694 | 15100 (1961) | 127 (1981) | 1440 | 201 | 226 | 314 | 330 | 638 | 1350 | 1630 | 4570 | 6210 |
| 2026-05-08 10:00 | 3.97 | 698 | 15100 (1961) | 127 (1981) | 1440 | 201 | 226 | 314 | 330 | 638 | 1350 | 1630 | 4570 | 6210 |
| 2026-05-08 09:30 | 3.97 | 698 | 15100 (1961) | 127 (1981) | 1440 | 201 | 226 | 314 | 330 | 638 | 1350 | 1630 | 4570 | 6210 |
| 2026-05-08 09:00 | 3.98 | 702 | 15100 (1961) | 127 (1981) | 1440 | 201 | 226 | 314 | 330 | 638 | 1350 | 1630 | 4570 | 6210 |
| 2026-05-08 08:30 | 3.98 | 702 | 15100 (1961) | 127 (1981) | 1440 | 201 | 226 | 314 | 330 | 638 | 1350 | 1630 | 4570 | 6210 |
| 2026-05-08 08:00 | 3.99 | 706 | 15100 (1961) | 127 (1981) | 1440 | 201 | 226 | 314 | 330 | 638 | 1350 | 1630 | 4570 | 6210 |
| 2026-05-08 07:30 | 3.99 | 706 | 15100 (1961) | 127 (1981) | 1440 | 201 | 226 | 314 | 330 | 638 | 1350 | 1630 | 4570 | 6210 |
| 2026-05-08 07:00 | 4.01 | 714 | 15100 (1961) | 127 (1981) | 1440 | 201 | 226 | 314 | 330 | 638 | 1350 | 1630 | 4570 | 6210 |
| 2026-05-08 06:30 | 4.01 | 714 | 15100 (1961) | 127 (1981) | 1440 | 201 | 226 | 314 | 330 | 638 | 1350 | 1630 | 4570 | 6210 |
| 2026-05-08 06:00 | 4.02 | 718 | 15100 (1961) | 127 (1981) | 1440 | 201 | 226 | 314 | 330 | 638 | 1350 | 1630 | 4570 | 6210 |
| 2026-05-08 05:30 | 4.03 | 722 | 15100 (1961) | 127 (1981) | 1440 | 201 | 226 | 314 | 330 | 638 | 1350 | 1630 | 4570 | 6210 |
| 2026-05-08 05:00 | 4.03 | 722 | 15100 (1961) | 127 (1981) | 1440 | 201 | 226 | 314 | 330 | 638 | 1350 | 1630 | 4570 | 6210 |
| 2026-05-08 04:30 | 4.03 | 722 | 15100 (1961) | 127 (1981) | 1440 | 201 | 226 | 314 | 330 | 638 | 1350 | 1630 | 4570 | 6210 |
| 2026-05-08 04:00 | 4.05 | 729 | 15100 (1961) | 127 (1981) | 1440 | 201 | 226 | 314 | 330 | 638 | 1350 | 1630 | 4570 | 6210 |
| 2026-05-08 03:30 | 4.06 | 733 | 15100 (1961) | 127 (1981) | 1440 | 201 | 226 | 314 | 330 | 638 | 1350 | 1630 | 4570 | 6210 |
| 2026-05-08 03:00 | 4.06 | 733 | 15100 (1961) | 127 (1981) | 1440 | 201 | 226 | 314 | 330 | 638 | 1350 | 1630 | 4570 | 6210 |
| 2026-05-08 02:30 | 4.08 | 741 | 15100 (1961) | 127 (1981) | 1440 | 201 | 226 | 314 | 330 | 638 | 1350 | 1630 | 4570 | 6210 |
| 2026-05-08 02:00 | 4.06 | 733 | 15100 (1961) | 127 (1981) | 1440 | 201 | 226 | 314 | 330 | 638 | 1350 | 1630 | 4570 | 6210 |
| 2026-05-08 01:30 | 4.09 | 745 | 15100 (1961) | 127 (1981) | 1440 | 201 | 226 | 314 | 330 | 638 | 1350 | 1630 | 4570 | 6210 |
| 2026-05-08 01:00 | 4.10 | 749 | 15100 (1961) | 127 (1981) | 1440 | 201 | 226 | 314 | 330 | 638 | 1350 | 1630 | 4570 | 6210 |
| 2026-05-08 00:30 | 4.11 | 753 | 15100 (1961) | 127 (1981) | 1440 | 201 | 226 | 314 | 330 | 638 | 1350 | 1630 | 4570 | 6210 |
| 2026-05-08 00:00 | 4.10 | 749 | 15100 (1961) | 127 (1981) | 1440 | 201 | 226 | 314 | 330 | 638 | 1350 | 1630 | 4570 | 6210 |
| 2026-05-07 23:30 | 4.09 | 745 | 15100 (1961) | 127 (1981) | 1440 | 201 | 226 | 314 | 330 | 638 | 1350 | 1630 | 4570 | 6210 |
| 2026-05-07 23:00 | 4.14 | 765 | 15100 (1961) | 127 (1981) | 1440 | 201 | 226 | 314 | 330 | 638 | 1350 | 1630 | 4570 | 6210 |
| 2026-05-07 22:30 | 4.13 | 761 | 13100 (1961) | 137 (1981) | 1380 | 207 | 250 | 324 | 349 | 677 | 1330 | 1570 | 3200 | 6470 |
| 2026-05-07 22:00 | 4.14 | 765 | 13100 (1961) | 137 (1981) | 1380 | 207 | 250 | 324 | 349 | 677 | 1330 | 1570 | 3200 | 6470 |
| 2026-05-07 21:30 | 4.13 | 761 | 13100 (1961) | 137 (1981) | 1380 | 207 | 250 | 324 | 349 | 677 | 1330 | 1570 | 3200 | 6470 |
| 2026-05-07 21:00 | 4.17 | 777 | 13100 (1961) | 137 (1981) | 1380 | 207 | 250 | 324 | 349 | 677 | 1330 | 1570 | 3200 | 6470 |
| 2026-05-07 20:30 | 4.13 | 761 | 13100 (1961) | 137 (1981) | 1380 | 207 | 250 | 324 | 349 | 677 | 1330 | 1570 | 3200 | 6470 |
| 2026-05-07 20:00 | 4.17 | 777 | 13100 (1961) | 137 (1981) | 1380 | 207 | 250 | 324 | 349 | 677 | 1330 | 1570 | 3200 | 6470 |
| 2026-05-07 19:30 | 4.18 | 781 | 13100 (1961) | 137 (1981) | 1380 | 207 | 250 | 324 | 349 | 677 | 1330 | 1570 | 3200 | 6470 |
| 2026-05-07 19:00 | 4.18 | 781 | 13100 (1961) | 137 (1981) | 1380 | 207 | 250 | 324 | 349 | 677 | 1330 | 1570 | 3200 | 6470 |
| 2026-05-07 18:30 | 4.21 | 793 | 13100 (1961) | 137 (1981) | 1380 | 207 | 250 | 324 | 349 | 677 | 1330 | 1570 | 3200 | 6470 |
| 2026-05-07 18:00 | 4.22 | 797 | 13100 (1961) | 137 (1981) | 1380 | 207 | 250 | 324 | 349 | 677 | 1330 | 1570 | 3200 | 6470 |
| 2026-05-07 17:30 | 4.23 | 801 | 13100 (1961) | 137 (1981) | 1380 | 207 | 250 | 324 | 349 | 677 | 1330 | 1570 | 3200 | 6470 |
| 2026-05-07 17:00 | 4.23 | 801 | 13100 (1961) | 137 (1981) | 1380 | 207 | 250 | 324 | 349 | 677 | 1330 | 1570 | 3200 | 6470 |
| 2026-05-07 16:30 | 4.23 | 801 | 13100 (1961) | 137 (1981) | 1380 | 207 | 250 | 324 | 349 | 677 | 1330 | 1570 | 3200 | 6470 |
| 2026-05-07 16:00 | 4.27 | 817 | 13100 (1961) | 137 (1981) | 1380 | 207 | 250 | 324 | 349 | 677 | 1330 | 1570 | 3200 | 6470 |
| 2026-05-07 15:30 | 4.28 | 821 | 13100 (1961) | 137 (1981) | 1380 | 207 | 250 | 324 | 349 | 677 | 1330 | 1570 | 3200 | 6470 |
| 2026-05-07 15:00 | 4.27 | 817 | 13100 (1961) | 137 (1981) | 1380 | 207 | 250 | 324 | 349 | 677 | 1330 | 1570 | 3200 | 6470 |
| 2026-05-07 14:30 | 4.29 | 825 | 13100 (1961) | 137 (1981) | 1380 | 207 | 250 | 324 | 349 | 677 | 1330 | 1570 | 3200 | 6470 |
| 2026-05-07 14:00 | 4.26 | 813 | 13100 (1961) | 137 (1981) | 1380 | 207 | 250 | 324 | 349 | 677 | 1330 | 1570 | 3200 | 6470 |
| 2026-05-07 13:30 | 4.30 | 829 | 13100 (1961) | 137 (1981) | 1380 | 207 | 250 | 324 | 349 | 677 | 1330 | 1570 | 3200 | 6470 |
| 2026-05-07 13:00 | 4.29 | 825 | 13100 (1961) | 137 (1981) | 1380 | 207 | 250 | 324 | 349 | 677 | 1330 | 1570 | 3200 | 6470 |
| 2026-05-07 12:30 | 4.30 | 829 | 13100 (1961) | 137 (1981) | 1380 | 207 | 250 | 324 | 349 | 677 | 1330 | 1570 | 3200 | 6470 |
| 2026-05-07 12:00 | 4.33 | 841 | 13100 (1961) | 137 (1981) | 1380 | 207 | 250 | 324 | 349 | 677 | 1330 | 1570 | 3200 | 6470 |
| 2026-05-07 11:30 | 4.34 | 845 | 13100 (1961) | 137 (1981) | 1380 | 207 | 250 | 324 | 349 | 677 | 1330 | 1570 | 3200 | 6470 |
| 2026-05-07 11:00 | 4.32 | 837 | 13100 (1961) | 137 (1981) | 1380 | 207 | 250 | 324 | 349 | 677 | 1330 | 1570 | 3200 | 6470 |
| 2026-05-07 10:30 | 4.34 | 845 | 13100 (1961) | 137 (1981) | 1380 | 207 | 250 | 324 | 349 | 677 | 1330 | 1570 | 3200 | 6470 |
| 2026-05-07 10:00 | 4.36 | 853 | 13100 (1961) | 137 (1981) | 1380 | 207 | 250 | 324 | 349 | 677 | 1330 | 1570 | 3200 | 6470 |
| 2026-05-07 09:30 | 4.36 | 853 | 13100 (1961) | 137 (1981) | 1380 | 207 | 250 | 324 | 349 | 677 | 1330 | 1570 | 3200 | 6470 |
| 2026-05-07 09:00 | 4.37 | 858 | 13100 (1961) | 137 (1981) | 1380 | 207 | 250 | 324 | 349 | 677 | 1330 | 1570 | 3200 | 6470 |
| 2026-05-07 08:30 | 4.37 | 858 | 13100 (1961) | 137 (1981) | 1380 | 207 | 250 | 324 | 349 | 677 | 1330 | 1570 | 3200 | 6470 |
| 2026-05-07 08:00 | 4.37 | 858 | 13100 (1961) | 137 (1981) | 1380 | 207 | 250 | 324 | 349 | 677 | 1330 | 1570 | 3200 | 6470 |
| 2026-05-07 07:30 | 4.37 | 858 | 13100 (1961) | 137 (1981) | 1380 | 207 | 250 | 324 | 349 | 677 | 1330 | 1570 | 3200 | 6470 |
| 2026-05-07 07:00 | 4.37 | 858 | 13100 (1961) | 137 (1981) | 1380 | 207 | 250 | 324 | 349 | 677 | 1330 | 1570 | 3200 | 6470 |
| 2026-05-07 06:30 | 4.40 | 870 | 13100 (1961) | 137 (1981) | 1380 | 207 | 250 | 324 | 349 | 677 | 1330 | 1570 | 3200 | 6470 |
| 2026-05-07 06:00 | 4.38 | 862 | 13100 (1961) | 137 (1981) | 1380 | 207 | 250 | 324 | 349 | 677 | 1330 | 1570 | 3200 | 6470 |
| 2026-05-07 05:30 | 4.41 | 874 | 13100 (1961) | 137 (1981) | 1380 | 207 | 250 | 324 | 349 | 677 | 1330 | 1570 | 3200 | 6470 |
| 2026-05-07 05:00 | 4.44 | 886 | 13100 (1961) | 137 (1981) | 1380 | 207 | 250 | 324 | 349 | 677 | 1330 | 1570 | 3200 | 6470 |
| 2026-05-07 04:30 | 4.45 | 891 | 13100 (1961) | 137 (1981) | 1380 | 207 | 250 | 324 | 349 | 677 | 1330 | 1570 | 3200 | 6470 |
| 2026-05-07 04:00 | 4.45 | 891 | 13100 (1961) | 137 (1981) | 1380 | 207 | 250 | 324 | 349 | 677 | 1330 | 1570 | 3200 | 6470 |
| 2026-05-07 03:30 | 4.44 | 886 | 13100 (1961) | 137 (1981) | 1380 | 207 | 250 | 324 | 349 | 677 | 1330 | 1570 | 3200 | 6470 |
| 2026-05-07 02:30 | 4.46 | 895 | 13100 (1961) | 137 (1981) | 1380 | 207 | 250 | 324 | 349 | 677 | 1330 | 1570 | 3200 | 6470 |
| 2026-05-07 02:00 | 4.46 | 895 | 13100 (1961) | 137 (1981) | 1380 | 207 | 250 | 324 | 349 | 677 | 1330 | 1570 | 3200 | 6470 |
| 2026-05-07 01:30 | 4.47 | 899 | 13100 (1961) | 137 (1981) | 1380 | 207 | 250 | 324 | 349 | 677 | 1330 | 1570 | 3200 | 6470 |
| 2026-05-07 01:00 | 4.47 | 899 | 13100 (1961) | 137 (1981) | 1380 | 207 | 250 | 324 | 349 | 677 | 1330 | 1570 | 3200 | 6470 |
| 2026-05-07 00:30 | 4.45 | 891 | 13100 (1961) | 137 (1981) | 1380 | 207 | 250 | 324 | 349 | 677 | 1330 | 1570 | 3200 | 6470 |
| 2026-05-07 00:00 | 4.49 | 907 | 13100 (1961) | 137 (1981) | 1380 | 207 | 250 | 324 | 349 | 677 | 1330 | 1570 | 3200 | 6470 |
| 2026-05-06 23:30 | 4.53 | 924 | 13100 (1961) | 137 (1981) | 1380 | 207 | 250 | 324 | 349 | 677 | 1330 | 1570 | 3200 | 6470 |
| 2026-05-06 23:00 | 4.52 | 920 | 13100 (1961) | 137 (1981) | 1380 | 207 | 250 | 324 | 349 | 677 | 1330 | 1570 | 3200 | 6470 |
| 2026-05-06 22:30 | 4.52 | 920 | 9940 (1961) | 116 (2000) | 1280 | 189 | 245 | 326 | 350 | 602 | 1370 | 1600 | 2750 | 6100 |
| 2026-05-06 22:00 | 4.53 | 924 | 9940 (1961) | 116 (2000) | 1280 | 189 | 245 | 326 | 350 | 602 | 1370 | 1600 | 2750 | 6100 |
| 2026-05-06 21:30 | 4.56 | 937 | 9940 (1961) | 116 (2000) | 1280 | 189 | 245 | 326 | 350 | 602 | 1370 | 1600 | 2750 | 6100 |
| 2026-05-06 21:00 | 4.56 | 937 | 9940 (1961) | 116 (2000) | 1280 | 189 | 245 | 326 | 350 | 602 | 1370 | 1600 | 2750 | 6100 |
| 2026-05-06 20:30 | 4.58 | 945 | 9940 (1961) | 116 (2000) | 1280 | 189 | 245 | 326 | 350 | 602 | 1370 | 1600 | 2750 | 6100 |
| 2026-05-06 20:00 | 4.55 | 933 | 9940 (1961) | 116 (2000) | 1280 | 189 | 245 | 326 | 350 | 602 | 1370 | 1600 | 2750 | 6100 |
| 2026-05-06 19:30 | 4.59 | 949 | 9940 (1961) | 116 (2000) | 1280 | 189 | 245 | 326 | 350 | 602 | 1370 | 1600 | 2750 | 6100 |
| 2026-05-06 19:00 | 4.59 | 949 | 9940 (1961) | 116 (2000) | 1280 | 189 | 245 | 326 | 350 | 602 | 1370 | 1600 | 2750 | 6100 |
| 2026-05-06 18:30 | 4.59 | 949 | 9940 (1961) | 116 (2000) | 1280 | 189 | 245 | 326 | 350 | 602 | 1370 | 1600 | 2750 | 6100 |
| 2026-05-06 18:00 | 4.55 | 933 | 9940 (1961) | 116 (2000) | 1280 | 189 | 245 | 326 | 350 | 602 | 1370 | 1600 | 2750 | 6100 |
| 2026-05-06 17:30 | 4.56 | 937 | 9940 (1961) | 116 (2000) | 1280 | 189 | 245 | 326 | 350 | 602 | 1370 | 1600 | 2750 | 6100 |
| 2026-05-06 17:00 | 4.60 | 954 | 9940 (1961) | 116 (2000) | 1280 | 189 | 245 | 326 | 350 | 602 | 1370 | 1600 | 2750 | 6100 |
| 2026-05-06 16:30 | 4.54 | 928 | 9940 (1961) | 116 (2000) | 1280 | 189 | 245 | 326 | 350 | 602 | 1370 | 1600 | 2750 | 6100 |
| 2026-05-06 16:00 | 4.55 | 933 | 9940 (1961) | 116 (2000) | 1280 | 189 | 245 | 326 | 350 | 602 | 1370 | 1600 | 2750 | 6100 |
| 2026-05-06 15:30 | 4.53 | 924 | 9940 (1961) | 116 (2000) | 1280 | 189 | 245 | 326 | 350 | 602 | 1370 | 1600 | 2750 | 6100 |
| 2026-05-06 15:00 | 4.49 | 907 | 9940 (1961) | 116 (2000) | 1280 | 189 | 245 | 326 | 350 | 602 | 1370 | 1600 | 2750 | 6100 |
| 2026-05-06 14:30 | 4.46 | 895 | 9940 (1961) | 116 (2000) | 1280 | 189 | 245 | 326 | 350 | 602 | 1370 | 1600 | 2750 | 6100 |
| 2026-05-06 14:00 | 4.43 | 882 | 9940 (1961) | 116 (2000) | 1280 | 189 | 245 | 326 | 350 | 602 | 1370 | 1600 | 2750 | 6100 |
| 2026-05-06 13:30 | 4.44 | 886 | 9940 (1961) | 116 (2000) | 1280 | 189 | 245 | 326 | 350 | 602 | 1370 | 1600 | 2750 | 6100 |
| 2026-05-06 13:00 | 4.40 | 870 | 9940 (1961) | 116 (2000) | 1280 | 189 | 245 | 326 | 350 | 602 | 1370 | 1600 | 2750 | 6100 |
| 2026-05-06 12:30 | 4.38 | 862 | 9940 (1961) | 116 (2000) | 1280 | 189 | 245 | 326 | 350 | 602 | 1370 | 1600 | 2750 | 6100 |
| 2026-05-06 12:00 | 4.33 | 841 | 9940 (1961) | 116 (2000) | 1280 | 189 | 245 | 326 | 350 | 602 | 1370 | 1600 | 2750 | 6100 |
| 2026-05-06 11:30 | 4.30 | 829 | 9940 (1961) | 116 (2000) | 1280 | 189 | 245 | 326 | 350 | 602 | 1370 | 1600 | 2750 | 6100 |
| 2026-05-06 11:00 | 4.25 | 809 | 9940 (1961) | 116 (2000) | 1280 | 189 | 245 | 326 | 350 | 602 | 1370 | 1600 | 2750 | 6100 |
| 2026-05-06 10:30 | 4.24 | 805 | 9940 (1961) | 116 (2000) | 1280 | 189 | 245 | 326 | 350 | 602 | 1370 | 1600 | 2750 | 6100 |
| 2026-05-06 10:00 | 4.21 | 793 | 9940 (1961) | 116 (2000) | 1280 | 189 | 245 | 326 | 350 | 602 | 1370 | 1600 | 2750 | 6100 |
| 2026-05-06 09:30 | 4.19 | 785 | 9940 (1961) | 116 (2000) | 1280 | 189 | 245 | 326 | 350 | 602 | 1370 | 1600 | 2750 | 6100 |
| 2026-05-06 09:00 | 4.16 | 773 | 9940 (1961) | 116 (2000) | 1280 | 189 | 245 | 326 | 350 | 602 | 1370 | 1600 | 2750 | 6100 |
| 2026-05-06 08:30 | 4.14 | 765 | 9940 (1961) | 116 (2000) | 1280 | 189 | 245 | 326 | 350 | 602 | 1370 | 1600 | 2750 | 6100 |
| 2026-05-04 07:00 | 3.74 | 612 | 20500 (2013) | 117 (2000) | 1580 | 178 | 269 | 367 | 388 | 689 | 1610 | 1730 | 3410 | 7850 |
| 2026-05-04 03:30 | 4.11 | 753 | 20500 (2013) | 117 (2000) | 1580 | 178 | 269 | 367 | 388 | 689 | 1610 | 1730 | 3410 | 7850 |
| 2026-05-04 03:00 | 4.16 | 773 | 20500 (2013) | 117 (2000) | 1580 | 178 | 269 | 367 | 388 | 689 | 1610 | 1730 | 3410 | 7850 |
| 2026-05-04 02:30 | 4.15 | 769 | 20500 (2013) | 117 (2000) | 1580 | 178 | 269 | 367 | 388 | 689 | 1610 | 1730 | 3410 | 7850 |
| 2026-05-04 02:00 | 4.16 | 773 | 20500 (2013) | 117 (2000) | 1580 | 178 | 269 | 367 | 388 | 689 | 1610 | 1730 | 3410 | 7850 |
| 2026-05-04 01:30 | 4.18 | 781 | 20500 (2013) | 117 (2000) | 1580 | 178 | 269 | 367 | 388 | 689 | 1610 | 1730 | 3410 | 7850 |
| 2026-05-04 01:00 | 4.14 | 765 | 20500 (2013) | 117 (2000) | 1580 | 178 | 269 | 367 | 388 | 689 | 1610 | 1730 | 3410 | 7850 |
| 2026-05-04 00:30 | 4.12 | 757 | 20500 (2013) | 117 (2000) | 1580 | 178 | 269 | 367 | 388 | 689 | 1610 | 1730 | 3410 | 7850 |
| 2026-05-04 00:00 | 4.13 | 761 | 20500 (2013) | 117 (2000) | 1580 | 178 | 269 | 367 | 388 | 689 | 1610 | 1730 | 3410 | 7850 |
| 2026-05-03 23:30 | 4.18 | 781 | 20500 (2013) | 117 (2000) | 1580 | 178 | 269 | 367 | 388 | 689 | 1610 | 1730 | 3410 | 7850 |
| 2026-05-03 23:00 | 4.17 | 777 | 20500 (2013) | 117 (2000) | 1580 | 178 | 269 | 367 | 388 | 689 | 1610 | 1730 | 3410 | 7850 |
| 2026-05-03 22:30 | 4.21 | 793 | 7670 (2011) | 120 (2000) | 1290 | 197 | 278 | 366 | 411 | 678 | 1510 | 1870 | 3240 | 4650 |
| 2026-05-03 22:00 | 4.21 | 793 | 7670 (2011) | 120 (2000) | 1290 | 197 | 278 | 366 | 411 | 678 | 1510 | 1870 | 3240 | 4650 |
| 2026-05-03 21:30 | 4.15 | 769 | 7670 (2011) | 120 (2000) | 1290 | 197 | 278 | 366 | 411 | 678 | 1510 | 1870 | 3240 | 4650 |
| 2026-05-03 21:00 | 4.23 | 801 | 7670 (2011) | 120 (2000) | 1290 | 197 | 278 | 366 | 411 | 678 | 1510 | 1870 | 3240 | 4650 |
| 2026-05-03 20:30 | 4.20 | 789 | 7670 (2011) | 120 (2000) | 1290 | 197 | 278 | 366 | 411 | 678 | 1510 | 1870 | 3240 | 4650 |
| 2026-05-03 20:00 | 4.22 | 797 | 7670 (2011) | 120 (2000) | 1290 | 197 | 278 | 366 | 411 | 678 | 1510 | 1870 | 3240 | 4650 |
| 2026-05-03 19:30 | 4.23 | 801 | 7670 (2011) | 120 (2000) | 1290 | 197 | 278 | 366 | 411 | 678 | 1510 | 1870 | 3240 | 4650 |
| 2026-05-03 19:00 | 4.18 | 781 | 7670 (2011) | 120 (2000) | 1290 | 197 | 278 | 366 | 411 | 678 | 1510 | 1870 | 3240 | 4650 |
| 2026-05-03 18:30 | 4.19 | 785 | 7670 (2011) | 120 (2000) | 1290 | 197 | 278 | 366 | 411 | 678 | 1510 | 1870 | 3240 | 4650 |
| 2026-05-03 18:00 | 4.21 | 793 | 7670 (2011) | 120 (2000) | 1290 | 197 | 278 | 366 | 411 | 678 | 1510 | 1870 | 3240 | 4650 |
| 2026-05-03 17:30 | 4.22 | 797 | 7670 (2011) | 120 (2000) | 1290 | 197 | 278 | 366 | 411 | 678 | 1510 | 1870 | 3240 | 4650 |
| 2026-05-03 17:00 | 4.29 | 825 | 7670 (2011) | 120 (2000) | 1290 | 197 | 278 | 366 | 411 | 678 | 1510 | 1870 | 3240 | 4650 |
| 2026-05-03 16:30 | 4.24 | 805 | 7670 (2011) | 120 (2000) | 1290 | 197 | 278 | 366 | 411 | 678 | 1510 | 1870 | 3240 | 4650 |
| 2026-05-03 16:00 | 4.22 | 797 | 7670 (2011) | 120 (2000) | 1290 | 197 | 278 | 366 | 411 | 678 | 1510 | 1870 | 3240 | 4650 |
| 2026-05-03 15:30 | 4.26 | 813 | 7670 (2011) | 120 (2000) | 1290 | 197 | 278 | 366 | 411 | 678 | 1510 | 1870 | 3240 | 4650 |
| 2026-05-03 15:00 | 4.28 | 821 | 7670 (2011) | 120 (2000) | 1290 | 197 | 278 | 366 | 411 | 678 | 1510 | 1870 | 3240 | 4650 |
| 2026-05-03 14:30 | 4.27 | 817 | 7670 (2011) | 120 (2000) | 1290 | 197 | 278 | 366 | 411 | 678 | 1510 | 1870 | 3240 | 4650 |
| 2026-05-03 14:00 | 4.24 | 805 | 7670 (2011) | 120 (2000) | 1290 | 197 | 278 | 366 | 411 | 678 | 1510 | 1870 | 3240 | 4650 |
| 2026-05-03 13:30 | 4.26 | 813 | 7670 (2011) | 120 (2000) | 1290 | 197 | 278 | 366 | 411 | 678 | 1510 | 1870 | 3240 | 4650 |
| 2026-05-03 13:00 | 4.27 | 817 | 7670 (2011) | 120 (2000) | 1290 | 197 | 278 | 366 | 411 | 678 | 1510 | 1870 | 3240 | 4650 |
| 2026-05-03 12:30 | 4.24 | 805 | 7670 (2011) | 120 (2000) | 1290 | 197 | 278 | 366 | 411 | 678 | 1510 | 1870 | 3240 | 4650 |
| 2026-05-03 12:00 | 4.27 | 817 | 7670 (2011) | 120 (2000) | 1290 | 197 | 278 | 366 | 411 | 678 | 1510 | 1870 | 3240 | 4650 |
| 2026-05-03 11:30 | 4.35 | 849 | 7670 (2011) | 120 (2000) | 1290 | 197 | 278 | 366 | 411 | 678 | 1510 | 1870 | 3240 | 4650 |
| 2026-05-03 11:00 | 4.32 | 837 | 7670 (2011) | 120 (2000) | 1290 | 197 | 278 | 366 | 411 | 678 | 1510 | 1870 | 3240 | 4650 |
| 2026-05-03 10:30 | 4.34 | 845 | 7670 (2011) | 120 (2000) | 1290 | 197 | 278 | 366 | 411 | 678 | 1510 | 1870 | 3240 | 4650 |
| 2026-05-03 10:00 | 4.30 | 829 | 7670 (2011) | 120 (2000) | 1290 | 197 | 278 | 366 | 411 | 678 | 1510 | 1870 | 3240 | 4650 |
| 2026-05-03 09:30 | 4.32 | 837 | 7670 (2011) | 120 (2000) | 1290 | 197 | 278 | 366 | 411 | 678 | 1510 | 1870 | 3240 | 4650 |
| 2026-05-03 09:00 | 4.33 | 841 | 7670 (2011) | 120 (2000) | 1290 | 197 | 278 | 366 | 411 | 678 | 1510 | 1870 | 3240 | 4650 |
| 2026-05-03 08:30 | 4.35 | 849 | 7670 (2011) | 120 (2000) | 1290 | 197 | 278 | 366 | 411 | 678 | 1510 | 1870 | 3240 | 4650 |
| 2026-05-03 08:00 | 4.35 | 849 | 7670 (2011) | 120 (2000) | 1290 | 197 | 278 | 366 | 411 | 678 | 1510 | 1870 | 3240 | 4650 |
| 2026-05-03 07:30 | 4.33 | 841 | 7670 (2011) | 120 (2000) | 1290 | 197 | 278 | 366 | 411 | 678 | 1510 | 1870 | 3240 | 4650 |
| 2026-05-03 07:00 | 4.33 | 841 | 7670 (2011) | 120 (2000) | 1290 | 197 | 278 | 366 | 411 | 678 | 1510 | 1870 | 3240 | 4650 |
| 2026-05-03 06:30 | 4.39 | 866 | 7670 (2011) | 120 (2000) | 1290 | 197 | 278 | 366 | 411 | 678 | 1510 | 1870 | 3240 | 4650 |
| 2026-05-03 06:00 | 4.36 | 853 | 7670 (2011) | 120 (2000) | 1290 | 197 | 278 | 366 | 411 | 678 | 1510 | 1870 | 3240 | 4650 |
| 2026-05-03 05:30 | 4.42 | 878 | 7670 (2011) | 120 (2000) | 1290 | 197 | 278 | 366 | 411 | 678 | 1510 | 1870 | 3240 | 4650 |
| 2026-05-03 05:00 | 4.39 | 866 | 7670 (2011) | 120 (2000) | 1290 | 197 | 278 | 366 | 411 | 678 | 1510 | 1870 | 3240 | 4650 |
| 2026-05-03 04:30 | 4.38 | 862 | 7670 (2011) | 120 (2000) | 1290 | 197 | 278 | 366 | 411 | 678 | 1510 | 1870 | 3240 | 4650 |
| 2026-05-03 04:00 | 4.43 | 882 | 7670 (2011) | 120 (2000) | 1290 | 197 | 278 | 366 | 411 | 678 | 1510 | 1870 | 3240 | 4650 |
| 2026-05-03 03:30 | 4.43 | 882 | 7670 (2011) | 120 (2000) | 1290 | 197 | 278 | 366 | 411 | 678 | 1510 | 1870 | 3240 | 4650 |
| 2026-05-03 03:00 | 4.46 | 895 | 7670 (2011) | 120 (2000) | 1290 | 197 | 278 | 366 | 411 | 678 | 1510 | 1870 | 3240 | 4650 |
| 2026-05-03 02:30 | 4.43 | 882 | 7670 (2011) | 120 (2000) | 1290 | 197 | 278 | 366 | 411 | 678 | 1510 | 1870 | 3240 | 4650 |
| 2026-05-03 02:00 | 4.37 | 858 | 7670 (2011) | 120 (2000) | 1290 | 197 | 278 | 366 | 411 | 678 | 1510 | 1870 | 3240 | 4650 |
| 2026-05-03 01:30 | 4.45 | 891 | 7670 (2011) | 120 (2000) | 1290 | 197 | 278 | 366 | 411 | 678 | 1510 | 1870 | 3240 | 4650 |
| 2026-05-03 01:00 | 4.46 | 895 | 7670 (2011) | 120 (2000) | 1290 | 197 | 278 | 366 | 411 | 678 | 1510 | 1870 | 3240 | 4650 |
| 2026-05-03 00:30 | 4.42 | 878 | 7670 (2011) | 120 (2000) | 1290 | 197 | 278 | 366 | 411 | 678 | 1510 | 1870 | 3240 | 4650 |
| 2026-05-03 00:00 | 4.46 | 895 | 7670 (2011) | 120 (2000) | 1290 | 197 | 278 | 366 | 411 | 678 | 1510 | 1870 | 3240 | 4650 |
| 2026-05-02 23:30 | 4.49 | 907 | 7670 (2011) | 120 (2000) | 1290 | 197 | 278 | 366 | 411 | 678 | 1510 | 1870 | 3240 | 4650 |
| 2026-05-02 23:00 | 4.50 | 911 | 7670 (2011) | 120 (2000) | 1290 | 197 | 278 | 366 | 411 | 678 | 1510 | 1870 | 3240 | 4650 |
A total of 246 rows are displayed for years 1949 through 2025.